Flag for U.S.A. Weather past 2 weeks in Honolulu, Hawaii, U.S.A.

Now
73 °F

Passing clouds.


Feels Like: 75 °F
Forecast: 67 / 80 °F
Wind: 7 mph from Northwest

Location: Honolulu International Airport

Current Time: May 30, 2015 at 1:07:41 AM

Latest Report: May 29, 2015 at 11:53 PM


Visibility: 10 mi

Pressure: 30.00 "Hg

Humidity: 74%

Dew point: 64 °F

Location of HonoluluLocation

Historic Weather in Honolulu — Graph

°F

Honolulu temperature yesterday

Maximum temperature yesterday: 86 °F (at 11:53 AM)
Minimum temperature yesterday: 69 °F (at 3:53 AM)
Average temperature yesterday: 76 °F

Past Weeks' High & Low Weather Summary

 TemperatureHumidityPressure
High86 °F (May 29, 11:53 AM)100% (May 16, 5:53 AM)30.17 "Hg (May 16, 5:53 AM)
Low61 °F (May 16, 5:53 AM)41% (May 25, 9:53 AM)29.89 "Hg (May 27, 3:53 PM)
Average76 °F65%30.02 "Hg
* Reported May 14 11:53 PM — May 29 11:53 PM, Honolulu, Weather by CustomWeather, © 2015

Note: Actual official high and low records may vary slightly from our data, if they occured in-between our weather recording intervals... More about our weather records

Advertising

Honolulu weather history for previous 24 hours

 ConditionsComfort  
Time TempWeatherWind HumidityBarometerVisibility
11:53 PM
Fri, May 29
73 °FPassing clouds.7 mph74%30.00 "Hg10 mi
10:53 PM74 °FPassing clouds.7 mph71%30.01 "Hg10 mi
9:53 PM75 °FPassing clouds.No wind69%30.00 "Hg10 mi
8:53 PM75 °FPassing clouds.No wind69%29.99 "Hg10 mi
7:53 PM76 °FPassing clouds.8 mph67%29.97 "Hg10 mi
6:53 PM78 °FScattered clouds.7 mph60%29.95 "Hg10 mi
5:53 PM80 °FScattered clouds.12 mph58%29.93 "Hg10 mi
4:53 PM80 °FBroken clouds.8 mph60%29.93 "Hg10 mi
3:53 PM81 °FBroken clouds.9 mph58%29.94 "Hg10 mi
2:53 PM80 °FPartly sunny.9 mph62%29.95 "Hg10 mi
1:53 PM78 °FLight rain. Partly sunny.7 mph69%29.96 "Hg9 mi
12:53 PM81 °FBroken clouds.7 mph60%29.96 "Hg10 mi
11:53 AM86 °FScattered clouds.6 mph46%29.97 "Hg10 mi
10:53 AM82 °FScattered clouds.5 mph56%29.98 "Hg10 mi
9:53 AM80 °FScattered clouds.9 mph62%29.98 "Hg10 mi
8:53 AM80 °FScattered clouds.3 mph60%29.98 "Hg10 mi
7:53 AM76 °FScattered clouds.5 mph69%29.99 "Hg10 mi
6:53 AM72 °FScattered clouds.5 mph76%29.98 "Hg10 mi
5:53 AM69 °FScattered clouds.6 mph81%29.97 "Hg10 mi
4:53 AM69 °FPassing clouds.6 mph81%29.96 "Hg10 mi
3:53 AM69 °FClear.3 mph84%29.96 "Hg10 mi
2:53 AM70 °FClear.7 mph81%29.96 "Hg10 mi
1:53 AM71 °FClear.5 mph81%29.97 "Hg10 mi
Weather by CustomWeather, © 2015

See weather overviewHow to use our weather pages